DW0841 Weather Reports


Display with metric or nautical units.
time (UTC)temp
F
wind
direction
speed
MPH
gust
MPH
rain 1hr
in
rain 24hr
in
rain mn
in
humidity
%
barometer
mb
20190222075724 67 180 1.0 5.0 0.00 0.00 0.00 56 1019.7
20190222074719 68 202 1.0 4.0 0.00 0.00 0.00 55 1019.6
20190222073721 68 270 3.0 9.0 0.00 0.00 0.00 54 1019.4
20190222072719 69 202 1.0 3.0 0.00 0.00 0.00 52 1019.4
20190222071716 71 180 1.0 5.0 0.00 0.00 0.00 51 1019.5
20190222070719 71 180 3.0 6.0 0.00 0.00 0.00 51 1019.4
20190222065719 71 202 2.0 6.0 0.00 0.00 0.00 51 1019.4
20190222064722 71 202 1.0 4.0 0.00 0.00 0.00 51 1018.9
20190222063721 71 247 2.0 9.0 0.00 0.00 0.00 50 1019.0
20190222062721 72 202 1.0 5.0 0.00 0.00 0.00 49 1018.8
20190222061721 72 202 2.0 6.0 0.00 0.00 0.00 49 1018.6
20190222060721 73 0.0 1.0 0.00 0.00 0.00 49 1018.6
20190222055721 74 0.0 1.0 0.00 0.00 0.00 47 1018.5
20190222054721 74 180 4.0 9.0 0.00 0.00 0.00 46 1018.6
20190222053721 74 0.0 1.0 0.00 0.00 0.00 47 1018.6
20190222052722 74 0.0 1.0 0.00 0.00 0.00 48 1018.3
20190222051721 74 0.0 4.0 0.00 0.00 0.00 47 1018.2
20190222050722 74 0.0 2.0 0.00 0.00 0.00 46 1018.3
20190222045721 75 0.0 1.0 0.00 0.00 0.00 47 1018.5
20190222044721 75 90 1.0 2.0 0.00 0.00 0.00 45 1018.5
20190222043721 74 180 1.0 4.0 0.00 0.00 0.00 45 1018.6
20190222042722 74 157 3.0 9.0 0.00 0.00 0.00 47 1018.8
20190222041721 74 180 1.0 3.0 0.00 0.00 0.00 47 1018.6
20190222040718 74 0.0 1.0 0.00 0.00 0.00 49 1018.7
20190222035721 73 90 2.0 4.0 0.00 0.00 0.00 51 1018.6
20190222034721 72 0.0 1.0 0.00 0.00 0.00 53 1018.8
20190222033721 72 45 2.0 6.0 0.00 0.00 0.00 50 1018.7
20190222032721 73 202 1.0 4.0 0.00 0.00 0.00 47 1019.3
20190222031721 72 180 2.0 7.0 0.00 0.00 0.00 48 1019.3
20190222030721 71 202 1.0 3.0 0.00 0.00 0.00 48 1019.3
20190222025721 69 157 1.0 3.0 0.00 0.00 0.00 52 1019.2
20190222024721 67 180 2.0 7.0 0.00 0.00 0.00 51 1019.3
20190222023721 68 202 6.0 12.0 0.00 0.00 0.00 53 1019.3
20190222022721 67 0.0 1.0 0.00 0.00 0.00 56 1019.2
20190222021722 67 202 1.0 4.0 0.00 0.00 0.00 56 1019.3
20190222020721 67 202 1.0 4.0 0.00 0.00 0.00 57 1019.4
20190222015721 66 0.0 1.0 0.00 0.00 0.00 57 1019.5
20190222014720 66 0.0 1.0 0.00 0.00 0.00 58 1019.7
20190222013720 66 0.0 1.0 0.00 0.00 0.00 57 1019.5
20190222012720 65 202 3.0 7.0 0.00 0.00 0.00 58 1019.6
20190222011720 65 0.0 1.0 0.00 0.00 0.00 59 1019.7
20190222010720 65 0.0 3.0 0.00 0.00 0.00 58 1019.7
20190222005720 65 0.0 1.0 0.00 0.00 0.00 59 1019.7
20190222004720 65 0.0 1.0 0.00 0.00 0.00 59 1019.9
20190222003720 66 202 1.0 3.0 0.00 0.00 0.00 58 1020.0
20190222002720 65 0.0 2.0 0.00 0.00 0.00 59 1020.0
20190222001720 63 0.0 1.0 0.00 0.00 0.00 60 1020.1
20190222000720 63 180 1.0 5.0 0.00 0.00 0.00 60 1020.2
20190221235720 62 0.0 1.0 0.00 0.00 0.00 61 1020.2
20190221234720 63 202 1.0 7.0 0.00 0.00 0.00 61 1020.1
20190221233719 63 0.0 1.0 0.00 0.00 0.00 62 1020.1
20190221232719 63 0.0 2.0 0.00 0.00 0.00 62 1020.2
20190221231720 63 0.0 1.0 0.00 0.00 0.00 62 1020.2
20190221230720 62 180 1.0 3.0 0.00 0.00 0.00 62 1020.1
20190221225720 62 0.0 0.0 0.00 0.00 0.00 62 1020.1
20190221224719 61 180 1.0 4.0 0.00 0.00 0.00 63 1020.0
20190221223720 60 0.0 2.0 0.00 0.00 0.00 63 1019.9
20190221222719 59 0.0 0.0 0.00 0.00 0.00 63 1019.8
20190221221720 58 0.0 0.0 0.00 0.00 0.00 62 1019.8
20190221220719 57 0.0 0.0 0.00 0.00 0.00 60 1019.8
20190221215719 56 0.0 0.0 0.00 0.00 0.00 59 1019.9
20190221214719 56 0.0 1.0 0.00 0.00 0.00 58 1019.8
20190221213719 55 0.0 0.0 0.00 0.00 0.00 58 1019.6
20190221212719 55 0.0 0.0 0.00 0.00 0.00 58 1019.3
20190221211719 54 0.0 0.0 0.00 0.00 0.00 57 1019.3
20190221210722 53 0.0 0.0 0.00 0.00 0.00 58 1019.2
20190221205717 52 0.0 0.0 0.00 0.00 0.00 58 1019.0
20190221204719 52 0.0 0.0 0.00 0.00 0.00 58 1018.8
20190221203719 51 0.0 0.0 0.00 0.00 0.00 58 1018.8
20190221202719 51 0.0 0.0 0.00 0.00 0.00 58 1018.7
20190221201719 51 0.0 0.0 0.00 0.00 0.00 58 1018.6
20190221200720 50 0.0 1.0 0.00 0.00 0.00 58 1018.5
20190221195719 50 0.0 0.0 0.00 0.00 0.00 58 1018.3
20190221194720 50 0.0 1.0 0.00 0.00 0.00 58 1018.1
20190221193720 50 0.0 0.0 0.00 0.00 0.00 58 1018.2
20190221192719 49 0.0 0.0 0.00 0.00 0.00 58 1018.1
20190221191719 49 0.0 0.0 0.00 0.00 0.00 58 1018.1
20190221190720 49 0.0 1.0 0.00 0.00 0.00 58 1018.1
20190221185719 49 0.0 0.0 0.00 0.00 0.00 58 1017.8
20190221184719 49 0.0 0.0 0.00 0.00 0.00 58 1017.8
20190221183719 49 0.0 0.0 0.00 0.00 0.00 58 1017.8
20190221182719 49 0.0 0.0 0.00 0.00 0.00 58 1017.8
20190221181720 49 0.0 0.0 0.00 0.00 0.00 58 1017.8
20190221180720 49 0.0 0.0 0.00 0.00 0.00 59 1017.7
20190221175719 49 0.0 0.0 0.00 0.00 0.00 59 1017.8
20190221174720 49 0.0 0.0 0.00 0.00 0.00 59 1017.7
20190221173717 49 0.0 0.0 0.00 0.00 0.00 60 1017.7
20190221172719 49 0.0 0.0 0.00 0.00 0.00 60 1017.6
20190221171719 49 0.0 0.0 0.00 0.00 0.00 60 1017.5
20190221170719 50 180 1.0 2.0 0.00 0.00 0.00 60 1017.4
20190221165719 50 0.0 0.0 0.00 0.00 0.00 60 1017.6
20190221164719 50 0.0 0.0 0.00 0.00 0.00 60 1017.5
20190221163719 50 0.0 0.0 0.00 0.00 0.00 60 1017.5
20190221162719 50 180 2.0 3.0 0.00 0.00 0.00 60 1017.4
20190221161719 50 0.0 0.0 0.00 0.00 0.00 60 1017.4
20190221160719 50 0.0 0.0 0.00 0.00 0.00 61 1017.4
20190221155719 50 0.0 0.0 0.00 0.00 0.00 61 1017.7
20190221154719 50 180 2.0 4.0 0.00 0.00 0.00 61 1017.2
20190221153719 50 0.0 0.0 0.00 0.00 0.00 61 1017.2
20190221152719 50 0.0 0.0 0.00 0.00 0.00 61 1017.4
20190221151719 50 0.0 0.0 0.00 0.00 0.00 61 1017.5
20190221150719 50 0.0 0.0 0.00 0.00 0.00 62 1017.5
20190221145719 50 0.0 0.0 0.00 0.00 0.00 62 1017.3
20190221144720 50 0.0 0.0 0.00 0.00 0.00 61 1017.6
20190221143719 50 0.0 0.0 0.00 0.00 0.00 61 1017.5
20190221142719 50 0.0 1.0 0.00 0.00 0.00 62 1017.5
20190221141719 50 0.0 0.0 0.00 0.00 0.00 62 1017.4
20190221140719 50 0.0 0.0 0.00 0.00 0.00 63 1017.6
20190221135719 50 180 1.0 2.0 0.00 0.00 0.00 63 1017.5
20190221134719 50 0.0 0.0 0.00 0.00 0.00 63 1017.5
20190221133719 50 0.0 0.0 0.00 0.00 0.00 63 1017.4
20190221132716 50 0.0 0.0 0.00 0.00 0.00 63 1017.4
20190221131719 50 0.0 1.0 0.00 0.00 0.00 63 1017.5
20190221130719 50 0.0 1.0 0.00 0.00 0.00 64 1017.6
20190221125721 50 0.0 1.0 0.00 0.00 0.00 64 1017.6
20190221124721 51 0.0 2.0 0.00 0.00 0.00 64 1017.5
20190221123721 51 0.0 0.0 0.00 0.00 0.00 64 1017.5
20190221122721 51 0.0 0.0 0.00 0.00 0.00 65 1017.4
20190221121721 51 0.0 0.0 0.00 0.00 0.00 65 1017.4
20190221120721 51 0.0 0.0 0.00 0.00 0.00 65 1017.2
20190221115721 52 0.0 1.0 0.00 0.00 0.00 65 1017.2
20190221114721 52 0.0 0.0 0.00 0.00 0.00 65 1017.2
20190221113721 52 0.0 0.0 0.00 0.00 0.00 65 1017.4
20190221112721 53 0.0 0.0 0.00 0.00 0.00 65 1017.3
20190221111721 53 0.0 0.0 0.00 0.00 0.00 65 1017.1
20190221110721 54 0.0 0.0 0.00 0.00 0.00 65 1017.0
20190221105721 54 0.0 0.0 0.00 0.00 0.00 65 1017.1
20190221104721 55 0.0 0.0 0.00 0.00 0.00 64 1017.0
20190221103721 55 0.0 0.0 0.00 0.00 0.00 64 1017.0
20190221102721 56 0.0 0.0 0.00 0.00 0.00 64 1016.7
20190221101722 57 0.0 0.0 0.00 0.00 0.00 64 1016.6
20190221100721 57 0.0 0.0 0.00 0.00 0.00 63 1016.5
20190221095721 57 0.0 0.0 0.00 0.00 0.00 63 1016.5
20190221094721 58 0.0 0.0 0.00 0.00 0.00 63 1016.3
20190221093721 58 0.0 0.0 0.00 0.00 0.00 63 1016.1
20190221092721 59 0.0 0.0 0.00 0.00 0.00 62 1015.9
20190221091721 59 0.0 0.0 0.00 0.00 0.00 62 1015.7
20190221090721 59 0.0 0.0 0.00 0.00 0.00 62 1015.7
20190221085721 59 0.0 0.0 0.00 0.00 0.00 61 1015.6
20190221084721 60 0.0 0.0 0.00 0.00 0.00 61 1015.5
20190221083721 60 0.0 0.0 0.00 0.00 0.00 60 1015.2
20190221082721 60 180 2.0 9.0 0.00 0.00 0.00 60 1015.1
20190221081722 60 0.0 1.0 0.00 0.00 0.00 60 1015.0
20190221080723 61 180 1.0 3.0 0.00 0.00 0.00 59 1014.8